Preview of NWS' New Version of Forecast
This preview is not operational and should not be used for support decisions.

Regional Weather Roundup (RWR)

Issued by National Weather Service (NWS)

                            
871 
ASUS44 KMEG 262000
RWRTN 
TENNESSEE HOURLY STATE WEATHER ROUNDUP
NATIONAL WEATHER SERVICE MEMPHIS TN
300 PM CDT TUE MAR 26 2019

TNZ002-004-019-021-049-052-054-088>092-262100-
WEST TENNESSEE
  
CITY           SKY/WX    TMP DP  RH WIND       PRES   REMARKS
MEMPHIS INTL   FAIR      58  32  37 N17G24    30.29F                  
NWS MEMPHIS      N/A     57 N/A N/A MISG        N/A                   
JACKSON        FAIR      57  26  30 N13G21    30.29F                  
DYERSBURG      FAIR      56  27  32 NE14G23   30.32F                  
$$

TNZ008-025-027-028-033-062-065-066-262100-
NORTH MIDDLE TENNESSEE
  
CITY           SKY/WX    TMP DP  RH WIND       PRES   REMARKS
NASHVILLE      FAIR      57  15  19 NE16G24   30.27F                  
CLARKSVILLE    FAIR      54  15  21 VRB6G16   30.30F                  
SMYRNA         FAIR      57  22  25 N15G22    30.26F                  
CROSSVILLE     FAIR      55  32  41 VRB7G17   30.19F                  
$$

TNZ061-075-076-078-094-096-097-262100-
SOUTH MIDDLE TENNESSEE
  
CITY           SKY/WX    TMP DP  RH WIND       PRES   REMARKS
FAYETTEVILLE   SUNNY     55  34  44 N15       30.19S                  
$$

TNZ017-018-042-046-047-262100-
NORTHEAST TENNESSEE
  
CITY           SKY/WX    TMP DP  RH WIND       PRES   REMARKS
TRI CITIES     PTSUNNY   52  36  54 NE6       30.19F                  
$$

TNZ012-013-036-069-073-074-262100-
CENTRAL EAST TENNESSEE
  
CITY           SKY/WX    TMP DP  RH WIND       PRES   REMARKS
KNOXVILLE      PTSUNNY   53  41  63 NE10      30.18F                  
OAK RIDGE      FAIR      60  37  42 NE7       30.19F                  
$$

TNZ083-085-099-262100-
SOUTHEAST TENNESSEE
  
CITY           SKY/WX    TMP DP  RH WIND       PRES   REMARKS
CHATTANOOGA    FAIR      61  41  47 N18       30.16F                  
$$

SKY/WX REPORTED AS FAIR MEANS FEW OR NO CLOUDS BELOW
12 THOUSAND FEET.